[Iaude] MPEC S48: 2023 SG [a=0.91,e=0.19,i=13.6,H=26.6]
    mpec at marsden.cfa.harvard.edu 
    mpec at marsden.cfa.harvard.edu
       
    Sun Sep 17 18:48:06 EDT 2023
    
    
  
M.P.E.C. 2023-S48                            Issued 2023 September 17, 22:46 UT
     The Minor Planet Electronic Circulars contain information on unusual
         minor planets, routine data on comets and natural satellites,
         and occasional editorial announcements.  They are published
    on behalf of Division F of the International Astronomical Union by the
          Minor Planet Center, Smithsonian Astrophysical Observatory,
                          Cambridge, MA 02138, U.S.A.
			  
             Prepared using the Tamkin Foundation Computer Network
                              MPC at CFA.HARVARD.EDU
            URL https://www.minorplanetcenter.net/    ISSN 1523-6714
                                    2023 SG                                     
Observations:
     K23S00G* C2023 09 16.32477022 03 19.579+02 41 33.58         19.92wXES048F51
     K23S00G  C2023 09 16.33842022 03 21.919+02 34 13.81         19.79wXES048F51
     K23S00G  C2023 09 16.35208922 03 24.220+02 26 54.70         20.10wXES048F51
     K23S00G 1C2023 09 16.78108122 05 32.250-01 17 32.00               VES048246
     K23S00G 1C2023 09 16.78221722 05 32.270-01 18 05.90               VES048246
     K23S00G 1C2023 09 16.78250122 05 32.260-01 18 13.90               VES048246
     K23S00G 1C2023 09 16.83638 22 05 43.40 -01 45 12.0          20.5 VXES048033
     K23S00G 1C2023 09 16.83693 22 05 43.52 -01 45 28.9          20.5 VXES048033
     K23S00G 1C2023 09 16.83751 22 05 43.62 -01 45 45.5          20.8 VXES048033
     K23S00G 1C2023 09 16.83824 22 05 43.76 -01 46 07.7          20.5 VXES048033
     K23S00G 0B2023 09 17.79399922 09 50.887-08 56 07.88         19.7 VZES048M49
     K23S00G 0B2023 09 17.80055922 09 51.807-08 58 53.43         19.6 VZES048M49
     K23S00G 0B2023 09 17.80711922 09 52.788-09 01 36.96         20.3 VZES048M49
     K23S00G 1C2023 09 17.86615 22 10 00.84 -09 31 10.7          20.3 VXES048033
     K23S00G 1C2023 09 17.86696 22 10 00.94 -09 31 29.9          20.4 VXES048033
     K23S00G 1C2023 09 17.86776 22 10 01.10 -09 31 50.1          20.5 VXES048033
     K23S00G 1C2023 09 17.86873 22 10 01.26 -09 32 14.1          20.7 VXES048033
     K23S00G 1C2023 09 17.86961 22 10 01.40 -09 32 35.6          20.4 VXES048033
     K23S00G KC2023 09 17.87993922 10 03.45 -09 36 31.1          19.7 GVES048104
     K23S00G KC2023 09 17.89222922 10 05.34 -09 41 33.3          19.9 GVES048104
     K23S00G KC2023 09 17.89837322 10 06.24 -09 44 03.8          19.6 GVES048104
     K23S00G KC2023 09 17.90224322 10 06.17 -09 45 42.4          20.2 GVES048L01
     K23S00G KC2023 09 17.90520622 10 06.57 -09 46 55.6          20.0 GVES048L01
     K23S00G KC2023 09 17.90668922 10 06.82 -09 47 31.5          19.8 GVES048L01
Observer details:
033 Karl Schwarzschild Observatory, Tautenburg.  Observers S. Melnikov, C.
    Hoegner, F. Ludwig, M. Hartmann, B. Stecklum, C. Hogner.  Measurer B.
    Stecklum.  1.34-m f/3 Schmidt + CCD.
104 San Marcello Pistoiese.  Observers P. Bacci, M. Maestripieri.  Measurers
    P. Bacci, L. Tesi, G. Fagioli.  0.60-m F4 Reflector + CCD.
246 Klet Observatory-KLENOT.  Observers M. Tichy, J. Ticha, M. Janda, M.
    Honkova.  Measurer M. Tichy.  1.06-m f/2.7 Reflector + 2048x2048 CCD.
F51 Pan-STARRS 1, Haleakala.  Observers J. Bulger, T. Lowe, P. Minguez, A.
    Schultz, I. Smith.  Measurers K. Chambers, T. de Boer, J. Bulger, J.
    Fairlamb, H. Gao, M. Huber, C.-C. Lin, T. Lowe, E. Magnier, P. Minguez, Y.
    Ramanjooloo, A. Schultz, I. Smith, R. Wainscoat, R. Weryk.  1.8-m Ritchey-
    Chretien + CCD.
L01 Visnjan Observatory, Tican.  Observers K. Korlevic, G. Kervina.  Measurer
    K. Korlevic.  1.0-m f/2.9 reflector + CCD.
M49 IAS Remote Observatory, Hakos.  Observers D. Husar, M. Junius.  Measurer
    D. Husar.  0.25-m f/4.5 reflector + CMO.
Orbital elements:
2023 SG                                                  Earth MOID = 0.0248 AU
Epoch 2023 Sept. 13.0 TT = JDT 2460200.5                Veres                   
M 123.06231              (2000.0)            P               Q                  
n   1.13703455     Peri.   36.44500     -0.86115988     +0.50772220             
a   0.9091180      Node   173.90839     -0.50398486     -0.84636044             
e   0.1911234      Incl.   13.59089     -0.06635458     -0.16091042             
P   0.87           H   26.64          G   0.15           U   7                  
Residuals in seconds of arc
230916 F51  0.1-  0.8-    230916 033  0.0   0.1+    230917 033  0.6+  0.2-
230916 F51  0.0   0.1-    230916 033  0.1-  0.4-    230917 033  0.5+  0.1+
230916 F51  0.0   1.0+    230917 M49  0.5+  0.9-    230917 104  0.3-  0.7+
230916 246  3.5+  0.8+    230917 M49  0.0   1.6-    230917 104  0.2+  0.4+
230916 246  0.2+  1.0+    230917 M49  0.6+  0.5-    230917 104  0.1-  0.4+
230916 246  0.8-  1.5+    230917 033  0.6+  0.4-    230917 L01  0.3+  0.1-
230916 033  0.0   0.0     230917 033  0.1+  0.4+    230917 L01  0.4-  0.8-
230916 033  0.2+  0.5-    230917 033  0.5+  0.1-    230917 L01  0.0   0.5-
Ephemeris:
2023 SG                  a,e,i = 0.91, 0.19, 14                  q = 0.7354
Date    TT    R. A. (2000) Decl.     Delta      r    Elong.  Phase     V
2023 08 18    11 27 24.4 +69 38 24   0.1287  0.9514    58.5   114.9    26.6
...
2023 09 02    13 57 03.0 +81 17 08   0.06215 0.9961    76.1   100.4    24.2
...
2023 09 10    21 02 27.3 +63 55 59   0.03131 1.0167   106.8    71.6    21.7
...
2023 09 16    22 01 36.7 +05 42 38   0.02720 1.0305   155.7    23.7    20.0
2023 09 17    22 06 22.0 -03 00 45   0.02943 1.0326   157.5    21.8    20.1
2023 09 18    22 10 29.2 -10 21 09   0.03228 1.0347   156.4    22.9    20.3
...
2023 09 24    22 27 26.6 -33 58 21   0.05592 1.0465   139.4    38.6    22.0
...
2023 10 02    22 41 04.1 -43 53 50   0.09322 1.0597   126.9    49.1    23.4
...
2023 10 17    22 59 59.9 -48 06 50   0.1659  1.0764   114.6    57.4    25.0
M. P. C. Staff               (C) Copyright 2023 MPC           M.P.E.C. 2023-S48
    
    
More information about the Iaude
mailing list